This is the latest recevied weather packets stored in our database for station/object DG6YGE-6. If no packets are shown the sender has not sent any weather packets the latest 10 day(s).
| Time | Temp. | Humidity | Pressure | Rain* | Wind** | Luminosity | Snow |
|---|---|---|---|---|---|---|---|
| 1777035550 | 15.56° C | 63% | 1020 hPa | 0 mm | - | 655 W/m² | - |
| 1777034950 | 15° C | 63% | 1020.2 hPa | 0 mm | - | 670 W/m² | - |
| 1777034351 | 15° C | 64% | 1020.3 hPa | 0 mm | - | 686 W/m² | - |
| 1777033750 | 15° C | 64% | 1020.4 hPa | 0 mm | - | 700 W/m² | - |
| 1777033151 | 15° C | 65% | 1020.4 hPa | 0 mm | - | 702 W/m² | - |
| 1777032550 | 14.44° C | 66% | 1020.4 hPa | 0 mm | - | 694 W/m² | - |
| 1777031950 | 14.44° C | 67% | 1020.4 hPa | 0 mm | - | 701 W/m² | - |
| 1777031350 | 14.44° C | 65% | 1020.5 hPa | 0 mm | - | 694 W/m² | - |
| 1777030750 | 14.44° C | 66% | 1020.6 hPa | 0 mm | - | 718 W/m² | - |
| 1777030150 | 14.44° C | 67% | 1020.7 hPa | 0 mm | - | 718 W/m² | - |
| 1777029550 | 13.89° C | 67% | 1020.7 hPa | 0 mm | - | 636 W/m² | - |
| 1777028950 | 13.89° C | 68% | 1020.9 hPa | 0 mm | - | 713 W/m² | - |
| 1777028350 | 13.33° C | 69% | 1020.9 hPa | 0 mm | - | 692 W/m² | - |
| 1777027750 | 13.33° C | 69% | 1021.1 hPa | 0 mm | - | 715 W/m² | - |
| 1777027150 | 12.78° C | 70% | 1021.1 hPa | 0 mm | - | 698 W/m² | - |
| 1777026550 | 12.78° C | 71% | 1021.2 hPa | 0 mm | - | 697 W/m² | - |
| 1777025950 | 12.22° C | 71% | 1021.3 hPa | 0 mm | - | 711 W/m² | - |
| 1777025350 | 11.67° C | 73% | 1021.4 hPa | 0 mm | - | 725 W/m² | - |
| 1777024750 | 11.11° C | 76% | 1021.5 hPa | 0 mm | - | 562 W/m² | - |
| 1777024150 | 10.56° C | 76% | 1021.6 hPa | 0 mm | - | 459 W/m² | - |
| 1777023550 | 10.56° C | 75% | 1021.7 hPa | 0 mm | - | 526 W/m² | - |
| 1777022951 | 10° C | 76% | 1021.6 hPa | 0 mm | - | 452 W/m² | - |
| 1777022350 | 10° C | 77% | 1021.7 hPa | 0 mm | - | 398 W/m² | - |
| 1777021750 | 9.44° C | 78% | 1021.7 hPa | 0 mm | - | 340 W/m² | - |
| 1777021150 | 9.44° C | 79% | 1021.8 hPa | 0 mm | - | 494 W/m² | - |
* Rain latest hour (hover to see other rain measurements)
** Current wind speed in m/s (hover to see current wind gust speed)